LFSBLFSG

Guest
Details From LFSB - Bale-Mulhouse
To LFSG - Epinal Mirecourt
Flight Number -
Tags generated
Created
Modified
Stats Distance 73 nm / 135 km
Max Altitude 6,500 ft / 1,981 m
Waypoints 3
Social Downloads 1
Likes 0
Share VATSIM

Download

Looking for another format? Having issues loading an existing format? Contact us
Advertisement - Login to hide

Notes

Basic altitude profile: - Ascent Rate: 800ft/min - Ascent Speed: 80kts - Cruise Altitude: 6000ft - Cruise Speed: 100kts - Descent Rate: 500ft/min - Descent Speed: 90kts Options: - Use NATs: yes - Use PACOTS: yes - Use low airways: yes - Use high airways: yes

Route

LFSB MIRGU LFSG

ID Type Via Altitude Latitude Longitude Leg Dist Tot Dist Heading (true) Name
O LFSB APT - 0 ft / 0 m 47.59581˚ 7.52481˚ - 0 nm - Bale-Mulhouse
MIRGU FIX - 6,500 ft / 1,981 m 48.01917˚ 6.67889˚ 42 nm 42 nm 307° / 306° -
O LFSG APT - 0 ft / 0 m 48.32519˚ 6.06996˚ 30 nm 73 nm 307° / 307° Epinal Mirecourt

Altitude Profile

Advertisement - Login to hide

LFSB

Details ICAO LFSB (MLH)
Name Bale-Mulhouse
Region France
Timezone Europe/Paris (UTC+1.0)
Stats Elevation 885 ft / 270 m (AMSL)
Location 47.595810° 7.524806°
Runways 2
Magnetic Variation 2.085° E

METAR

LFSB 150030Z AUTO 25010KT 9999 FEW041 BKN058 BKN074 04/02 Q0997 TEMPO 24015G30KT 3000 -RASN BKN013

Decode

TAF

TAF AMD LFSB 142331Z 1500/1524 24010KT 7000 RA BKN030 BKN060 PROB40 TEMPO 1500/1502 3000 -RASN BKN013 BECMG 1502/1504 NSW PROB30 TEMPO 1500/1504 24015G30KT PROB40 TEMPO 1510/1515 25015G25KT PROB40 TEMPO 1515/1521 4000 SHRA SCT030CB PROB40 TEMPO 1521/1524 1500 -SHSN

Decode

Departure Runways

ID Width Length Bearing (true) Bearing (mag) Surface Threshold Offset Overrun Length
08 193 ft / 59 m 5,956 ft / 1,816 m 76.91° 74.83° Concrete 0 ft / 0 m 0 ft / 0 m
15 197 ft / 60 m 12,802 ft / 3,902 m 154.86° 152.78° Concrete 0 ft / 0 m 0 ft / 0 m
26 193 ft / 59 m 5,956 ft / 1,816 m 256.93° 254.85° Concrete 722 ft / 220 m 0 ft / 0 m
33 197 ft / 60 m 12,802 ft / 3,902 m 334.88° 332.80° Concrete 3,675 ft / 1,120 m 0 ft / 0 m

LFSG

Details ICAO LFSG (EPL)
Name Epinal Mirecourt
Region France
Timezone Europe/Paris (UTC+1.0)
Stats Elevation 1,084 ft / 330 m (AMSL)
Location 48.325189° 6.069958°
Runways 1
Magnetic Variation 1.685° E

METAR

LFSG 150030Z AUTO 24017KT 9999 FEW022 OVC032 04/01 Q0995

Decode

TAF

Not found

Destination Runways

ID Width Length Bearing (true) Bearing (mag) Surface Threshold Offset Overrun Length
09 147 ft / 45 m 8,835 ft / 2,693 m 85.05° 83.36° Concrete 0 ft / 0 m 1,662 ft / 507 m
27 147 ft / 45 m 8,835 ft / 2,693 m 265.08° 263.39° Concrete 846 ft / 258 m 0 ft / 0 m

Approach Navaids

Runway Type Ident Frequency Range Bearing (true) Bearing (mag) Slope Elevation
27 Localiser MI 110.90 MHz 18 nm / 33 km 265.05° 263.36° - 1,084 ft / 330 m (AMSL)
27 Glidescope MI 110.90 MHz 10 nm / 19 km 265.06° 263.38° 3.00° 1,084 ft / 330 m (AMSL)

Popular Alternatives